Location: Amsterdam
(30.7274°N, 84.4357°W)
Time: 07:24:42
(UTC+00:00)

BlueWalker 3 - Pass Details

Date: 24 January 2026
Orbit: 450 x 461 km, 53.2° (Epoch: 11 February)

Event Time Altitude Azimuth Distance (km) Brightness Sun altitude
Rises 23:59:32 0° 272° (W) 2,449 7.0 -11.7°
Reaches altitude 10° 00:03:22 10° 314° (NW) 1,578 4.9 -12.5°
Maximum altitude 00:04:06 11° 326° (NNW) 1,548 4.7 -12.7°
Drops below altitude 10° 00:04:50 10° 338° (NNW) 1,578 4.5 -12.8°
Enters shadow 00:07:34 - 12° (NNE) 2,112 4.8 -13.4°
